Time,TemperatureF,DewpointF,PressureIn,WindDirection,WindDirectionDegrees,WindSpeedMPH,WindSpeedGustMPH,Humidity,HourlyPrecipIn,Conditions,Clouds,dailyrainin,SoftwareType,DateUTC
2013-01-24 00:02:00,52.0,49.0,30.31,SE,142,3.0,5.0,90,0.00,,,0.00,,2013-01-24 06:02:00,
2013-01-24 00:12:00,52.0,49.0,30.31,SE,142,3.0,5.0,90,0.00,,,0.00,,2013-01-24 06:12:00,
2013-01-24 00:22:00,52.0,49.0,30.31,SSW,197,4.0,5.0,89,0.00,,,0.00,,2013-01-24 06:22:00,
2013-01-24 00:32:00,52.0,49.0,30.31,SSW,198,3.0,5.0,88,0.00,,,0.00,,2013-01-24 06:32:00,
2013-01-24 00:42:00,52.0,49.0,30.31,SSW,198,3.0,5.0,88,0.00,,,0.00,,2013-01-24 06:42:00,
2013-01-24 00:52:00,52.0,49.0,30.30,South,172,3.0,4.0,88,0.00,,,0.00,,2013-01-24 06:52:00,
2013-01-24 01:02:00,52.0,49.0,30.31,SW,219,2.0,3.0,89,0.00,,,0.00,,2013-01-24 07:02:00,
2013-01-24 01:12:00,52.0,49.0,30.31,SW,219,2.0,3.0,89,0.00,,,0.00,,2013-01-24 07:12:00,
2013-01-24 01:22:00,52.0,49.0,30.31,SSW,211,2.0,4.0,90,0.00,,,0.00,,2013-01-24 07:22:00,
2013-01-24 01:33:00,51.0,48.0,30.31,SSW,197,2.0,4.0,90,0.00,,,0.00,,2013-01-24 07:33:00,
2013-01-24 01:42:00,51.0,48.0,30.31,SSW,197,2.0,4.0,90,0.00,,,0.00,,2013-01-24 07:42:00,
2013-01-24 01:53:00,51.0,48.0,30.30,SSW,195,2.0,4.0,90,0.00,,,0.00,,2013-01-24 07:53:00,
2013-01-24 02:02:00,50.0,48.0,30.30,SSW,198,1.0,2.0,92,0.00,,,0.00,,2013-01-24 08:02:00,
2013-01-24 02:12:00,50.0,48.0,30.30,SSW,198,1.0,2.0,92,0.00,,,0.00,,2013-01-24 08:12:00,
2013-01-24 02:22:00,51.0,49.0,30.30,SSW,201,2.0,4.0,92,0.00,,,0.00,,2013-01-24 08:22:00,
2013-01-24 02:33:00,50.0,48.0,30.29,SSW,205,1.0,3.0,92,0.00,,,0.00,,2013-01-24 08:33:00,
2013-01-24 02:42:00,50.0,48.0,30.29,SSW,205,1.0,3.0,92,0.00,,,0.00,,2013-01-24 08:42:00,
2013-01-24 02:53:00,49.0,47.0,30.29,SSW,200,0.0,0.0,94,0.00,,,0.00,,2013-01-24 08:53:00,
2013-01-24 03:03:00,48.0,47.0,30.30,SSW,212,0.0,0.0,95,0.00,,,0.00,,2013-01-24 09:03:00,
2013-01-24 03:12:00,48.0,47.0,30.30,SSW,212,0.0,0.0,95,0.00,,,0.00,,2013-01-24 09:12:00,
2013-01-24 03:23:00,48.0,47.0,30.29,SSW,212,0.0,0.0,96,0.00,,,0.00,,2013-01-24 09:23:00,
2013-01-24 03:33:00,47.0,46.0,30.29,SSW,212,0.0,0.0,96,0.00,,,0.00,,2013-01-24 09:33:00,
2013-01-24 03:43:00,47.0,46.0,30.29,SSW,212,0.0,0.0,96,0.00,,,0.00,,2013-01-24 09:43:00,
2013-01-24 03:53:00,47.0,46.0,30.29,SSW,212,0.0,0.0,97,0.00,,,0.00,,2013-01-24 09:53:00,
2013-01-24 04:02:00,46.0,45.0,30.30,SSW,212,0.0,0.0,97,0.00,,,0.00,,2013-01-24 10:02:00,
2013-01-24 04:12:00,46.0,45.0,30.30,SSW,212,0.0,0.0,97,0.00,,,0.00,,2013-01-24 10:12:00,
2013-01-24 04:22:00,45.0,44.0,30.30,SSW,212,0.0,0.0,97,0.00,,,0.00,,2013-01-24 10:22:00,
2013-01-24 04:33:00,44.0,43.0,30.30,SSW,212,0.0,0.0,97,0.00,,,0.00,,2013-01-24 10:33:00,
2013-01-24 04:43:00,44.0,43.0,30.30,SSW,212,0.0,0.0,97,0.00,,,0.00,,2013-01-24 10:43:00,
2013-01-24 04:53:00,44.0,43.0,30.31,SSW,212,0.0,0.0,97,0.00,,,0.00,,2013-01-24 10:53:00,
2013-01-24 05:02:00,44.0,43.0,30.30,SSW,212,0.0,0.0,97,0.00,,,0.00,,2013-01-24 11:02:00,
2013-01-24 05:12:00,44.0,43.0,30.30,SSW,212,0.0,0.0,97,0.00,,,0.00,,2013-01-24 11:12:00,
2013-01-24 05:23:00,44.0,43.0,30.30,SSW,212,0.0,0.0,97,0.00,,,0.00,,2013-01-24 11:23:00,
2013-01-24 05:33:00,44.0,43.0,30.30,SSW,212,0.0,0.0,97,0.00,,,0.00,,2013-01-24 11:33:00,
2013-01-24 05:43:00,44.0,43.0,30.30,SSW,212,0.0,0.0,97,0.00,,,0.00,,2013-01-24 11:43:00,
2013-01-24 05:53:00,43.0,42.0,30.32,SSW,213,0.0,0.0,97,0.00,,,0.00,,2013-01-24 11:53:00,
2013-01-24 06:03:00,42.0,41.0,30.32,SSW,212,0.0,0.0,97,0.00,,,0.00,,2013-01-24 12:03:00,
2013-01-24 06:12:00,42.0,41.0,30.32,SSW,212,0.0,0.0,97,0.00,,,0.00,,2013-01-24 12:12:00,
2013-01-24 06:22:00,43.0,42.0,30.32,SSW,212,0.0,0.0,98,0.00,,,0.00,,2013-01-24 12:22:00,
2013-01-24 06:33:00,44.0,43.0,30.32,SSW,212,0.0,0.0,98,0.00,,,0.00,,2013-01-24 12:33:00,
2013-01-24 06:43:00,44.0,43.0,30.32,SSW,212,0.0,0.0,98,0.00,,,0.00,,2013-01-24 12:43:00,
2013-01-24 06:53:00,44.0,43.0,30.32,SSW,212,0.0,0.0,98,0.00,,,0.00,,2013-01-24 12:53:00,
2013-01-24 07:03:00,43.0,42.0,30.33,SSW,212,0.0,0.0,98,0.00,,,0.00,,2013-01-24 13:03:00,
2013-01-24 07:13:00,43.0,42.0,30.33,SSW,212,0.0,0.0,98,0.00,,,0.00,,2013-01-24 13:13:00,
2013-01-24 07:23:00,43.0,42.0,30.33,SSW,212,0.0,0.0,98,0.00,,,0.00,,2013-01-24 13:23:00,
2013-01-24 07:31:00,45.0,44.0,30.33,SSW,212,0.0,0.0,98,0.00,,,0.00,,2013-01-24 13:31:00,
2013-01-24 07:33:00,44.0,43.0,30.33,SSW,212,0.0,0.0,98,0.00,,,0.00,,2013-01-24 13:33:00,
2013-01-24 07:42:00,44.0,43.0,30.33,SSW,212,0.0,0.0,98,0.00,,,0.00,,2013-01-24 13:42:00,
2013-01-24 07:53:00,45.0,44.0,30.33,SSW,212,0.0,0.0,98,0.00,,,0.00,,2013-01-24 13:53:00,
2013-01-24 08:02:00,45.0,44.0,30.33,SSW,212,0.0,0.0,98,0.00,,,0.00,,2013-01-24 14:02:00,
2013-01-24 08:12:00,45.0,44.0,30.33,SSW,212,0.0,0.0,98,0.00,,,0.00,,2013-01-24 14:12:00,
2013-01-24 08:23:00,45.0,44.0,30.33,SSW,212,0.0,0.0,98,0.00,,,0.00,,2013-01-24 14:23:00,